Location: Croydon
(51.3762°N, 0.0982°W)
Time: 00:55:20
(UTC+01:00)

KKS-1 - Visible Passes

Search period start: 23 April 2019 00:00
Search period end: 03 May 2019 00:00
Orbit: 637 x 651 km, 98.4° (Epoch: 21 April)

Date Brightness Start Highest point End Pass type
(mag) Time Alt. Az. Time Alt. Az. Time Alt. Az.
23 Apr ? 22:11:10 10° NW 22:12:29 11° NW 22:13:49 10° WNW visible
24 Apr ? 20:57:07 10° N 21:01:17 39° WNW 21:05:25 10° SW visible
25 Apr ? 21:22:02 10° N 21:25:40 25° WNW 21:29:19 10° WSW visible
26 Apr ? 21:47:11 10° NNW 21:50:00 17° NW 21:52:49 10° W visible
27 Apr ? 22:13:02 10° NW 22:14:15 11° NW 22:15:29 10° WNW visible
28 Apr ? 20:58:54 10° N 21:03:02 38° WNW 21:07:11 10° SW visible
29 Apr ? 21:23:49 10° N 21:27:27 25° WNW 21:31:04 10° WSW visible
30 Apr ? 21:48:58 10° NNW 21:51:45 16° NW 21:54:33 10° W visible
01 May ? 22:14:52 10° NW 22:16:00 11° NW 22:17:08 10° WNW visible
02 May ? 21:00:41 10° N 21:04:49 37° WNW 21:08:56 10° SW visible
